FW0643 Weather Reports


Display with metric or nautical units.
time (UTC)temp
F
wind
direction
speed
MPH
gust
MPH
rain 1hr
in
rain 24hr
in
rain mn
in
humidity
%
barometer
mb
20221209150605 49 265 2.0 4.0 0.00 0.00 0.00 72 1027.0
20221209145605 48 192 1.0 4.0 0.00 0.00 0.00 73 1026.9
20221209144605 48 200 0.0 2.0 0.00 0.00 0.00 73 1026.9
20221209143607 48 17 2.0 3.0 0.00 0.00 0.00 71 1026.8
20221209142706 48 277 1.0 4.0 0.00 0.00 0.00 72 1026.9
20221209141708 48 329 0.0 2.0 0.00 0.00 0.00 73 1026.7
20221209135906 48 277 3.0 4.0 0.00 0.00 0.00 73 1026.5
20221209135005 47 309 1.0 2.0 0.00 0.00 0.00 74 1026.6
20221209133007 47 31 2.0 4.0 0.00 0.00 0.00 73 1026.5
20221209132007 47 360 0.0 1.0 0.00 0.00 0.00 75 1026.2
20221209131106 47 22 0.0 1.0 0.00 0.00 0.00 75 1026.2
20221209130107 47 38 1.0 3.0 0.00 0.00 0.00 76 1026.2
20221209125206 46 14 0.0 2.0 0.00 0.00 0.00 75 1026.1
20221209125107 46 360 0.0 1.0 0.00 0.00 0.00 76 1026.0
20221209124107 46 247 0.0 1.0 0.00 0.00 0.00 77 1026.1
20221209122206 46 20 1.0 2.0 0.00 0.00 0.00 75 1026.1
20221209121207 46 337 1.0 2.0 0.00 0.00 0.00 74 1026.0
20221209120207 46 25 1.0 3.0 0.00 0.00 0.00 75 1025.9
20221209114305 46 67 1.0 2.0 0.00 0.00 0.00 76 1026.0
20221209113306 47 45 1.0 2.0 0.00 0.00 0.00 75 1026.0
20221209113207 47 339 0.0 1.0 0.00 0.00 0.00 75 1026.1
20221209111406 47 22 0.0 0.0 0.00 0.00 0.00 75 1025.9
20221209110406 47 101 1.0 2.0 0.00 0.00 0.00 75 1025.7
20221209105408 47 127 2.0 7.0 0.00 0.00 0.00 75 1025.6
20221209104406 47 9 1.0 6.0 0.00 0.00 0.00 75 1025.8
20221209103406 48 337 1.0 2.0 0.00 0.00 0.00 75 1025.7
20221209102405 48 247 0.0 1.0 0.00 0.00 0.00 74 1025.7
20221209101407 48 341 1.0 3.0 0.00 0.00 0.00 74 1025.6
20221209100507 48 22 0.0 1.0 0.00 0.00 0.00 75 1025.5
20221209094607 48 337 0.0 0.0 0.00 0.00 0.00 74 1025.5
20221209093606 48 16 1.0 3.0 0.00 0.00 0.00 75 1025.4
20221209092607 48 355 1.0 2.0 0.00 0.00 0.00 75 1025.6
20221209091606 48 67 0.0 1.0 0.00 0.00 0.00 76 1025.6
20221209090608 48 3 1.0 3.0 0.00 0.00 0.00 78 1025.7
20221209085606 48 157 0.0 0.0 0.00 0.00 0.00 77 1025.8
20221209084606 48 81 0.0 2.0 0.00 0.00 0.00 77 1025.6
20221209083606 49 360 0.0 1.0 0.00 0.00 0.00 79 1025.6
20221209082706 49 45 0.0 1.0 0.00 0.00 0.00 80 1025.7
20221209081806 49 97 0.0 1.0 0.00 0.00 0.00 78 1025.7
20221209080807 49 38 1.0 2.0 0.00 0.00 0.00 76 1025.7
20221209080707 49 30 1.0 3.0 0.00 0.00 0.00 76 1025.7
20221209075706 49 290 1.0 3.0 0.00 0.00 0.00 77 1025.9
20221209074707 49 63 1.0 3.0 0.00 0.00 0.00 78 1025.9
20221209072805 50 15 1.0 2.0 0.00 0.00 0.00 79 1025.9
20221209070905 50 357 2.0 4.0 0.00 0.00 0.00 81 1025.9
20221209065909 50 57 1.0 3.0 0.00 0.00 0.00 82 1025.7
20221209064907 50 305 0.0 2.0 0.00 0.00 0.00 81 1026.0
20221209063906 50 9 1.0 4.0 0.00 0.00 0.00 80 1025.9
20221209062908 50 2 2.0 4.0 0.00 0.00 0.00 80 1025.9
20221209062006 50 66 2.0 4.0 0.00 0.00 0.00 80 1025.7
20221209061006 50 295 1.0 1.0 0.00 0.00 0.00 80 1025.9
20221209060007 50 45 1.0 2.0 0.00 0.00 0.00 79 1025.8
20221209053105 51 8 1.0 3.0 0.00 0.00 0.00 78 1025.9
20221209052106 51 270 0.0 1.0 0.00 0.00 0.00 78 1026.3
20221209050108 51 67 0.0 1.0 0.00 0.00 0.00 83 1025.8
20221209045204 51 48 0.0 1.0 0.00 0.00 0.00 84 1026.1
20221209045106 51 45 0.0 0.0 0.00 0.00 0.00 84 1026.1
20221209044005 51 157 0.0 0.0 0.00 0.00 0.00 85 1025.9
20221209043007 51 27 0.0 1.0 0.00 0.00 0.00 85 1026.1
20221209042005 51 270 0.0 0.0 0.00 0.00 0.00 84 1026.0
20221209041005 50 22 0.0 0.0 0.00 0.00 0.00 84 1025.9
20221209040007 50 45 0.0 1.0 0.00 0.00 0.00 84 1025.7
20221209035907 50 45 1.0 2.0 0.00 0.00 0.00 85 1025.8
20221209034005 50 28 0.0 1.0 0.00 0.00 0.00 88 1026.0
20221209032006 50 180 0.0 0.0 0.00 0.00 0.00 87 1025.6
20221209031006 50 180 0.0 0.0 0.00 0.00 0.00 87 1025.7
20221209024105 50 45 0.0 0.0 0.00 0.00 0.00 87 1025.7
20221209023107 50 45 0.0 0.0 0.00 0.00 0.00 85 1025.9
20221209022106 50 67 0.0 0.0 0.00 0.00 0.00 86 1025.7
20221209021205 50 67 0.0 0.0 0.00 0.00 0.00 86 1025.9
20221209015206 50 67 0.0 0.0 0.00 0.00 0.00 85 1025.8
20221209013206 50 67 0.0 1.0 0.00 0.00 0.00 86 1026.0
20221209011206 50 22 0.0 0.0 0.00 0.00 0.00 84 1026.2
20221209010304 50 315 0.0 0.0 0.00 0.00 0.00 85 1026.2
20221209005306 50 247 0.0 0.0 0.00 0.00 0.00 86 1026.0
20221209004305 50 247 0.0 0.0 0.00 0.00 0.00 87 1026.0
20221209003305 50 247 0.0 0.0 0.00 0.00 0.00 87 1026.0
20221209002306 50 247 0.0 0.0 0.00 0.00 0.00 87 1026.0
20221209001305 50 247 0.0 0.0 0.00 0.00 0.00 86 1025.9
20221209000305 51 247 0.0 0.0 0.00 0.00 0.00 84 1025.9
20221208235306 51 247 0.0 0.0 0.00 0.00 0.00 84 1025.8
20221208234404 51 360 0.0 0.0 0.00 0.00 0.00 83 1025.8
20221208233405 51 360 0.0 1.0 0.00 0.00 0.00 81 1025.7
20221208233305 52 138 0.0 0.0 0.00 0.00 0.00 81 1025.8
20221208232306 52 178 1.0 2.0 0.00 0.00 0.00 80 1025.9
20221208231305 52 157 0.0 0.0 0.00 0.00 0.00 79 1025.9
20221208230306 52 202 0.0 1.0 0.00 0.00 0.00 80 1026.0
20221208224307 52 292 0.0 0.0 0.00 0.00 0.00 81 1026.3
20221208223405 52 292 0.0 0.0 0.00 0.00 0.00 83 1026.5
20221208222405 52 157 0.0 1.0 0.00 0.00 0.00 82 1025.8
20221208222306 52 157 0.0 1.0 0.00 0.00 0.00 81 1025.7
20221208221308 53 45 0.0 0.0 0.00 0.01 0.00 82 1025.9
20221208220404 53 67 0.0 0.0 0.00 0.01 0.00 82 1025.5
20221208215406 53 51 1.0 2.0 0.00 0.01 0.00 81 1025.3
20221208214406 53 157 0.0 1.0 0.00 0.01 0.00 82 1025.2
20221208214307 53 134 0.0 1.0 0.00 0.01 0.00 81 1025.3
20221208212505 53 22 0.0 1.0 0.00 0.01 0.00 83 1025.6
20221208211506 53 82 0.0 2.0 0.00 0.01 0.00 84 1025.4
20221208210506 53 65 0.0 2.0 0.00 0.01 0.00 85 1025.5
20221208205505 54 66 0.0 2.0 0.00 0.01 0.00 86 1025.6
20221208204506 54 67 1.0 2.0 0.00 0.01 0.00 85 1025.6
20221208203605 54 67 0.0 1.0 0.00 0.01 0.00 86 1025.6
20221208202705 54 22 0.0 2.0 0.00 0.01 0.00 85 1025.7
20221208201804 54 22 0.0 0.0 0.00 0.01 0.00 85 1025.9
20221208200804 54 34 1.0 2.0 0.00 0.01 0.00 84 1026.0
20221208195806 55 37 3.0 4.0 0.00 0.01 0.00 83 1025.8
20221208194806 55 166 1.0 2.0 0.00 0.01 0.00 83 1026.0
20221208193805 55 67 0.0 2.0 0.00 0.01 0.00 82 1025.8
20221208192806 56 351 1.0 2.0 0.00 0.02 0.00 81 1025.6
20221208191806 56 37 1.0 2.0 0.00 0.02 0.00 81 1025.6
20221208190905 56 61 1.0 3.0 0.00 0.02 0.00 82 1025.7
20221208190806 56 22 1.0 2.0 0.00 0.02 0.00 82 1025.9
20221208185804 56 12 1.0 4.0 0.00 0.02 0.00 81 1026.0
20221208185704 56 65 0.0 1.0 0.00 0.02 0.00 82 1026.0
20221208183704 56 26 2.0 4.0 0.00 0.03 0.00 81 1026.0
20221208182707 56 8 1.0 3.0 0.00 0.03 0.00 80 1026.2
20221208181805 57 352 2.0 4.0 0.00 0.03 0.00 81 1026.2
20221208180804 57 5 1.0 2.0 0.00 0.05 0.00 79 1026.3
20221208175904 56 334 1.0 3.0 0.00 0.05 0.00 80 1026.6
20221208175805 57 357 4.0 8.0 0.00 0.05 0.00 80 1026.5
20221208174807 57 12 2.0 4.0 0.00 0.05 0.00 78 1026.2
20221208172905 58 88 3.0 5.0 0.00 0.05 0.00 78 1026.5
20221208170906 58 332 1.0 2.0 0.00 0.05 0.00 79 1026.5
20221208165905 57 49 3.0 4.0 0.00 0.05 0.00 80 1026.5
20221208164907 57 101 1.0 4.0 0.00 0.05 0.00 81 1026.8
20221208164004 57 304 1.0 3.0 0.00 0.05 0.00 82 1026.9
20221208163006 57 360 0.0 1.0 0.00 0.05 0.00 83 1027.0
20221208161005 57 318 2.0 3.0 0.00 0.05 0.00 84 1027.2
20221208160105 56 337 1.0 2.0 0.00 0.05 0.00 86 1027.1
20221208153105 55 67 2.0 3.0 0.00 0.05 0.00 88 1026.9
20221208153008 55 67 2.0 3.0 0.00 0.05 0.00 88 1027.0
20221208151007 55 82 4.0 7.0 0.00 0.05 0.00 89 1027.0